Location: Charlottesville
(38.0290°N, 78.4770°W)
Time: 11:46:54
(UTC-04:00)

Vanguard 1 Rocket - All Passes

Search period start: 22 October 2017 00:00
Search period end: 01 November 2017 00:00
Orbit: 655 x 4222 km, 34.3° (Epoch: 21 October)

Date Brightness Start Highest point End Pass type
(mag) Time Alt. Az. Time Alt. Az. Time Alt. Az.
22 Oct - 04:30:40 10° S 04:38:31 17° SSE 04:44:12 10° ESE visible
22 Oct - 06:55:49 10° SW 07:05:16 38° SSE 07:10:49 10° E visible
22 Oct - 09:23:55 10° WSW 09:30:27 59° S 09:34:56 10° E daylight
22 Oct - 11:50:38 10° W 11:54:51 35° SSW 11:59:04 10° SE daylight
23 Oct - 03:22:24 10° SSE 03:26:07 11° SSE 03:29:22 10° SE visible
23 Oct - 05:43:04 10° SSW 05:53:49 31° SSE 06:00:12 10° E visible
23 Oct - 08:11:18 10° WSW 08:19:41 55° S 08:24:39 10° E daylight
23 Oct - 10:39:09 10° W 10:44:23 50° S 10:48:38 10° ESE daylight
23 Oct - 13:05:49 10° WSW 13:08:38 16° SSW 13:11:43 10° SSE daylight
24 Oct - 04:30:45 10° SSW 04:41:53 24° SSE 04:49:00 10° ESE visible
24 Oct - 06:58:10 10° SW 07:08:36 47° SSE 07:14:24 10° E visible
24 Oct - 09:27:03 10° W 09:33:48 60° S 09:38:19 10° ESE daylight
24 Oct - 11:54:09 10° W 11:58:06 27° SSW 12:01:56 10° SE daylight
25 Oct - 03:19:35 10° S 03:29:29 18° SSE 03:36:36 10° ESE visible
25 Oct - 05:44:48 10° SW 05:57:08 39° SSE 06:03:59 10° E visible
25 Oct - 08:14:13 10° WSW 08:23:00 61° S 08:28:07 10° E daylight
25 Oct - 10:42:27 10° W 10:47:41 43° SSW 10:51:51 10° SE daylight
25 Oct - 13:11:11 10° SW 13:11:49 10° SSW 13:12:28 10° SSW daylight
26 Oct - 02:12:07 10° SSE 02:16:36 11° SE 02:20:34 10° SE visible
26 Oct - 04:31:38 10° SSW 04:45:12 32° SSE 04:53:09 10° E visible
26 Oct - 07:00:44 10° WSW 07:11:54 56° S 07:17:55 10° E visible
26 Oct - 09:30:12 10° W 09:37:07 58° S 09:41:41 10° ESE daylight
26 Oct - 11:57:52 10° WSW 12:01:16 20° SSW 12:04:32 10° SSE daylight
27 Oct - 03:19:13 10° SSW 03:32:46 25° SSE 03:41:32 10° ESE visible
27 Oct - 05:46:51 10° SW 06:00:25 48° SSE 06:07:35 10° E visible
27 Oct - 08:17:12 10° W 08:26:19 65° S 08:31:32 10° E daylight
27 Oct - 10:45:48 10° W 10:50:54 34° SSW 10:54:56 10° SE daylight
28 Oct - 02:08:28 10° S 02:19:52 17° SSE 02:28:21 10° ESE visible
28 Oct - 04:33:00 10° SW 04:48:27 40° SSE 04:56:57 10° E visible
28 Oct - 07:03:26 10° WSW 07:15:12 64° S 07:21:22 10° E visible
28 Oct - 09:33:22 10° W 09:40:24 53° SSW 09:44:59 10° ESE daylight
28 Oct - 12:02:03 10° WSW 12:04:22 13° SSW 12:06:35 10° S daylight
29 Oct - 01:03:37 10° SSE 01:06:36 10° SE 01:09:22 10° SE visible
29 Oct - 03:19:42 10° SSW 03:35:58 32° SSE 03:45:45 10° E visible
29 Oct - 05:49:08 10° WSW 06:03:40 57° SSE 06:11:06 10° E visible
29 Oct - 08:20:14 10° W 08:29:38 65° S 08:34:56 10° ESE daylight
29 Oct - 10:49:14 10° W 10:54:02 27° SSW 10:57:49 10° SSE daylight
30 Oct - 02:07:35 10° SSW 02:23:01 24° SSE 02:33:32 10° E visible
30 Oct - 04:34:44 10° SW 04:51:39 49° SSE 05:00:34 10° E visible
30 Oct - 07:06:15 10° WSW 07:18:29 68° S 07:24:48 10° E visible
30 Oct - 09:36:34 10° W 09:43:38 45° SSW 09:48:13 10° SE daylight
31 Oct - 00:57:49 10° S 01:09:43 16° SE 01:19:08 10° ESE visible
31 Oct - 03:20:43 10° SW 03:39:06 40° SSE 03:49:36 10° E visible
31 Oct - 05:51:37 10° WSW 06:06:54 65° S 06:14:34 10° E visible
31 Oct - 08:23:16 10° W 08:32:54 62° SSW 08:38:18 10° ESE daylight
31 Oct - 10:52:53 10° W 10:57:04 20° SW 11:00:27 10° SSE daylight
